When you browse on this site, cookies collect data to enhance your experience and personalize the content and advertising you see.
Visit our Privacy Policy to learn more. By continuing to use the site, you agree to this use of cookies and data.
  • En España
  • Lista de países
  • Para 7 días
  • Temperatura del agua
  • El tiempo en el mapa
  • Informadores
  • user-avatar
    Iniciar sesión

    Tiempo cada hora Kabwe

    Hoy, 22 Octubre, Martes

    Tiempo Temperatura Precipitaciones Viento Presión Humedad
    00:00 +24°C° 0 mm 1 mps 658 mmHg 27%
    01:00 +24°C° 0 mm 1 mps 658 mmHg 28%
    02:00 +24°C° 0 mm 2 mps 658 mmHg 30%
    03:00 +24°C° 0 mm 2 mps 658 mmHg 30%
    04:00 +24°C° 0 mm 2 mps 659 mmHg 31%
    05:00 +23°C° 0 mm 2 mps 659 mmHg 32%
    06:00 +26°C° 0 mm 2 mps 660 mmHg 30%
    07:00 +29°C° 0 mm 3 mps 661 mmHg 27%
    08:00 +32°C° 0 mm 4 mps 662 mmHg 25%
    09:00 +35°C° 0 mm 4 mps 662 mmHg 21%
    10:00 +37°C° 0 mm 4 mps 662 mmHg 16%
    11:00 +40°C° 0 mm 3 mps 662 mmHg 12%
    12:00 +41°C° 0 mm 4 mps 661 mmHg 11%
    13:00 +41°C° 0 mm 5 mps 660 mmHg 11%
    14:00 +40°C° 0 mm 5 mps 659 mmHg 11%
    15:00 +40°C° 0 mm 5 mps 659 mmHg 11%
    16:00 +40°C° 0 mm 4 mps 659 mmHg 12%
    17:00 +38°C° 0 mm 4 mps 658 mmHg 12%
    18:00 +36°C° 0 mm 4 mps 658 mmHg 15%
    19:00 +33°C° 0 mm 3 mps 658 mmHg 18%
    20:00 +29°C° 0 mm 3 mps 658 mmHg 20%
    21:00 +29°C° 0 mm 3 mps 658 mmHg 21%
    22:00 +28°C° 0 mm 2 mps 658 mmHg 22%
    23:00 +27°C° 0 mm 2 mps 658 mmHg 23%

    Mañana, 23 Octubre, Miércoles

    Tiempo Temperatura Precipitaciones Viento Presión Humedad
    00:00 +27°C° 0 mm 2 mps 659 mmHg 23%
    01:00 +26°C° 0 mm 3 mps 659 mmHg 24%
    02:00 +26°C° 0 mm 3 mps 659 mmHg 25%
    03:00 +25°C° 0 mm 3 mps 659 mmHg 28%
    04:00 +25°C° 0 mm 2 mps 659 mmHg 31%
    05:00 +24°C° 0 mm 2 mps 659 mmHg 34%
    06:00 +26°C° 0 mm 3 mps 660 mmHg 33%
    07:00 +28°C° 0 mm 4 mps 661 mmHg 32%
    08:00 +30°C° 0 mm 5 mps 662 mmHg 32%
    09:00 +33°C° 0 mm 5 mps 662 mmHg 28%
    10:00 +36°C° 0 mm 4 mps 662 mmHg 24%
    11:00 +38°C° 0 mm 4 mps 662 mmHg 20%
    12:00 +38°C° 0 mm 3 mps 661 mmHg 19%
    13:00 +39°C° 0 mm 2 mps 660 mmHg 17%
    14:00 +39°C° 0 mm 2 mps 660 mmHg 16%
    15:00 +38°C° 0 mm 2 mps 659 mmHg 17%
    16:00 +37°C° 0 mm 2 mps 659 mmHg 17%
    17:00 +36°C° 0 mm 2 mps 658 mmHg 18%
    18:00 +34°C° 0 mm 2 mps 658 mmHg 20%
    19:00 +31°C° 0 mm 2 mps 658 mmHg 23%
    20:00 +29°C° 0 mm 2 mps 658 mmHg 26%
    21:00 +28°C° 0 mm 2 mps 658 mmHg 28%
    22:00 +27°C° 0 mm 2 mps 659 mmHg 30%
    23:00 +26°C° 0 mm 2 mps 659 mmHg 33%

    Pasado mañana, 24 Octubre, Jueves

    Tiempo Temperatura Precipitaciones Viento Presión Humedad
    00:00 +25°C° 0 mm 2 mps 658 mmHg 35%
    01:00 +25°C° 0 mm 2 mps 658 mmHg 38%
    02:00 +24°C° 0 mm 2 mps 658 mmHg 41%
    03:00 +24°C° 0 mm 2 mps 658 mmHg 43%
    04:00 +23°C° 0 mm 2 mps 659 mmHg 45%
    05:00 +23°C° 0 mm 2 mps 659 mmHg 46%
    06:00 +25°C° 0 mm 2 mps 660 mmHg 41%
    07:00 +28°C° 0 mm 3 mps 661 mmHg 36%
    08:00 +32°C° 0 mm 4 mps 662 mmHg 30%
    09:00 +34°C° 0 mm 3 mps 663 mmHg 26%
    10:00 +37°C° 0 mm 3 mps 663 mmHg 22%
    11:00 +39°C° 0 mm 3 mps 663 mmHg 17%
    12:00 +40°C° 0 mm 3 mps 662 mmHg 15%
    13:00 +42°C° 0 mm 4 mps 661 mmHg 13%
    14:00 +43°C° 0 mm 5 mps 660 mmHg 11%
    15:00 +42°C° 0 mm 5 mps 660 mmHg 11%
    16:00 +41°C° 0 mm 5 mps 659 mmHg 12%
    17:00 +40°C° 0 mm 5 mps 659 mmHg 12%
    18:00 +36°C° 0 mm 4 mps 659 mmHg 16%
    19:00 +33°C° 0 mm 3 mps 659 mmHg 19%
    20:00 +29°C° 0 mm 2 mps 659 mmHg 23%
    21:00 +29°C° 0 mm 2 mps 659 mmHg 24%
    22:00 +28°C° 0 mm 2 mps 659 mmHg 25%
    23:00 +27°C° 0 mm 2 mps 659 mmHg 26%

    25 Octubre, Viernes

    Tiempo Temperatura Precipitaciones Viento Presión Humedad
    00:00 +26°C° 0 mm 2 mps 659 mmHg 30%
    01:00 +26°C° 0 mm 2 mps 659 mmHg 35%
    02:00 +25°C° 0 mm 2 mps 659 mmHg 39%
    03:00 +25°C° 0 mm 2 mps 659 mmHg 43%
    04:00 +24°C° 0 mm 2 mps 659 mmHg 46%
    05:00 +23°C° 0 mm 2 mps 660 mmHg 49%
    06:00 +25°C° 0 mm 2 mps 661 mmHg 44%
    07:00 +28°C° 0 mm 3 mps 662 mmHg 39%
    08:00 +30°C° 0 mm 4 mps 663 mmHg 34%
    09:00 +34°C° 0 mm 3 mps 663 mmHg 29%
    10:00 +36°C° 0 mm 3 mps 663 mmHg 24%
    11:00 +39°C° 0 mm 3 mps 663 mmHg 19%
    12:00 +39°C° 0 mm 3 mps 662 mmHg 17%
    13:00 +41°C° 0 mm 4 mps 662 mmHg 15%
    14:00 +41°C° 0 mm 4 mps 661 mmHg 12%
    15:00 +40°C° 0 mm 4 mps 661 mmHg 13%
    16:00 +40°C° 0 mm 4 mps 660 mmHg 13%
    17:00 +38°C° 0 mm 4 mps 660 mmHg 13%
    18:00 +35°C° 0 mm 3 mps 659 mmHg 16%
    19:00 +31°C° 0 mm 2 mps 659 mmHg 19%
    20:00 +28°C° 0 mm 2 mps 659 mmHg 22%
    21:00 +27°C° 0 mm 2 mps 659 mmHg 26%
    22:00 +26°C° 0 mm 1 mps 659 mmHg 29%
    23:00 +25°C° 0 mm 1 mps 659 mmHg 33%

    26 Octubre, Sábado

    Tiempo Temperatura Precipitaciones Viento Presión Humedad
    00:00 +25°C° 0 mm 1 mps 659 mmHg 34%
    01:00 +24°C° 0 mm 2 mps 659 mmHg 36%
    02:00 +24°C° 0 mm 2 mps 659 mmHg 37%
    03:00 +24°C° 0 mm 2 mps 659 mmHg 39%
    04:00 +23°C° 0 mm 2 mps 659 mmHg 41%
    05:00 +23°C° 0 mm 2 mps 660 mmHg 43%
    06:00 +25°C° 0 mm 3 mps 661 mmHg 39%
    07:00 +27°C° 0 mm 3 mps 661 mmHg 34%
    08:00 +30°C° 0 mm 3 mps 662 mmHg 30%
    09:00 +34°C° 0 mm 3 mps 662 mmHg 25%
    10:00 +36°C° 0 mm 3 mps 663 mmHg 20%
    11:00 +39°C° 0 mm 3 mps 663 mmHg 16%
    12:00 +40°C° 0 mm 3 mps 662 mmHg 14%
    13:00 +42°C° 0 mm 4 mps 661 mmHg 12%
    14:00 +42°C° 0 mm 5 mps 660 mmHg 11%
    15:00 +41°C° 0 mm 5 mps 660 mmHg 11%
    16:00 +41°C° 0 mm 5 mps 659 mmHg 12%
    17:00 +40°C° 0 mm 5 mps 659 mmHg 13%
    18:00 +36°C° 0 mm 4 mps 659 mmHg 16%
    19:00 +33°C° 0 mm 3 mps 659 mmHg 19%
    20:00 +29°C° 0 mm 2 mps 659 mmHg 23%
    21:00 +29°C° 0 mm 2 mps 659 mmHg 26%
    22:00 +28°C° 0 mm 2 mps 659 mmHg 28%
    23:00 +27°C° 0 mm 2 mps 658 mmHg 31%

    27 Octubre, Domingo

    Tiempo Temperatura Precipitaciones Viento Presión Humedad
    00:00 +26°C° 0 mm 2 mps 658 mmHg 33%
    01:00 +25°C° 0 mm 2 mps 658 mmHg 36%
    02:00 +24°C° 0 mm 3 mps 657 mmHg 38%
    03:00 +24°C° 0 mm 2 mps 658 mmHg 38%
    04:00 +23°C° 0 mm 2 mps 658 mmHg 39%
    05:00 +21°C° 0 mm 2 mps 658 mmHg 39%
    06:00 +25°C° 0 mm 3 mps 659 mmHg 35%
    07:00 +28°C° 0 mm 3 mps 660 mmHg 30%
    08:00 +32°C° 0 mm 4 mps 661 mmHg 26%
    09:00 +34°C° 0 mm 4 mps 661 mmHg 22%
    10:00 +37°C° 0 mm 4 mps 662 mmHg 18%
    11:00 +41°C° 0 mm 4 mps 662 mmHg 14%
    12:00 +41°C° 0 mm 4 mps 661 mmHg 13%
    13:00 +42°C° 0 mm 5 mps 660 mmHg 11%
    14:00 +43°C° 0 mm 5 mps 659 mmHg 10%
    15:00 +42°C° 0 mm 5 mps 659 mmHg 11%
    16:00 +41°C° 0 mm 5 mps 658 mmHg 11%
    17:00 +40°C° 0 mm 5 mps 658 mmHg 12%
    18:00 +36°C° 0 mm 4 mps 657 mmHg 15%
    19:00 +33°C° 0 mm 3 mps 657 mmHg 17%
    20:00 +28°C° 0 mm 1 mps 657 mmHg 20%
    21:00 +27°C° 0 mm 1 mps 657 mmHg 22%
    22:00 +26°C° 0 mm 1 mps 657 mmHg 23%
    23:00 +25°C° 0 mm 1 mps 657 mmHg 25%

    28 Octubre, Lunes

    Tiempo Temperatura Precipitaciones Viento Presión Humedad
    00:00 +24°C° 0 mm 1 mps 657 mmHg 26%
    01:00 +24°C° 0 mm 1 mps 657 mmHg 27%
    02:00 +23°C° 0 mm 1 mps 657 mmHg 29%
    03:00 +23°C° 0 mm 1 mps 657 mmHg 30%
    04:00 +22°C° 0 mm 1 mps 657 mmHg 31%
    05:00 +20°C° 0 mm 2 mps 657 mmHg 33%
    06:00 +24°C° 0 mm 2 mps 658 mmHg 29%
    07:00 +28°C° 0 mm 3 mps 659 mmHg 25%
    08:00 +32°C° 0 mm 4 mps 660 mmHg 21%
    09:00 +35°C° 0 mm 3 mps 661 mmHg 18%
    10:00 +38°C° 0 mm 3 mps 661 mmHg 15%
    11:00 +41°C° 0 mm 2 mps 661 mmHg 13%
    12:00 +41°C° 0 mm 2 mps 660 mmHg 11%
    13:00 +42°C° 0 mm 2 mps 659 mmHg 9%
    14:00 +43°C° 0 mm 2 mps 659 mmHg 8%
    15:00 +43°C° 0 mm 3 mps 658 mmHg 8%
    16:00 +42°C° 0 mm 3 mps 657 mmHg 8%
    17:00 +40°C° 0 mm 3 mps 657 mmHg 8%
    18:00 +37°C° 0 mm 3 mps 657 mmHg 10%
    19:00 +32°C° 0 mm 2 mps 656 mmHg 12%
    20:00 +29°C° 0 mm 2 mps 656 mmHg 14%
    21:00 +28°C° 0 mm 2 mps 656 mmHg 17%
    22:00 +26°C° 0 mm 2 mps 656 mmHg 19%
    23:00 +25°C° 0 mm 1 mps 656 mmHg 21%
    Mostrar más